MDT,Max TemperatureF,Mean TemperatureF,Min TemperatureF,Max Dew PointF,MeanDew PointF,Min DewpointF,Max Humidity, Mean Humidity, Min Humidity, Max Sea Level PressureIn, Mean Sea Level PressureIn, Min Sea Level PressureIn, Max VisibilityMiles, Mean VisibilityMiles, Min VisibilityMiles, Max Wind SpeedMPH, Mean Wind SpeedMPH, Max Gust SpeedMPH,PrecipitationIn, CloudCover, Events, WindDirDegrees
2012-10-1,73,53,32,34,30,27,76,47,17,30.34,30.20,30.09,10,9,2,18,4,25,0.00,0,,45
2012-10-2,77,55,32,31,25,19,75,43,11,30.13,30.00,29.87,10,10,5,20,4,23,0.00,0,,301
2012-10-3,75,55,34,30,22,4,64,37,9,30.06,29.94,29.83,10,8,1,33,9,43,0.00,1,,306
2012-10-4,67,46,24,26,20,13,75,44,13,30.20,30.06,29.94,10,10,8,17,4,22,0.00,0,,351
2012-10-5,63,46,29,23,14,6,58,35,11,30.20,30.01,29.86,10,10,8,18,5,25,0.00,1,,307
2012-10-6,51,35,18,19,12,9,62,41,19,30.27,30.17,30.07,10,10,10,17,4,22,0.00,0,,19
2012-10-7,54,35,15,13,5,-2,61,36,11,30.27,30.17,30.12,10,10,10,14,3,20,0.00,0,,279
2012-10-8,66,42,18,13,5,-2,49,28,7,30.20,30.05,29.91,10,7,1,21,6,28,0.00,1,,282
2012-10-9,69,46,23,20,15,10,59,35,11,30.12,29.99,29.90,10,9,5,17,4,24,0.00,0,,317
2012-10-10,71,50,29,28,22,15,54,36,17,30.20,30.01,29.90,10,9,3,15,3,20,0.00,0,,319
2012-10-11,73,54,35,29,26,23,59,38,16,30.05,29.95,29.88,10,10,9,18,3,24,0.00,1,,54
2012-10-12,55,47,38,45,35,26,92,71,49,30.06,29.96,29.88,10,9,3,33,6,43,0.15,5,Rain-Thunderstorm,155
2012-10-13,48,43,38,41,37,35,92,82,71,30.27,30.08,29.96,10,9,4,9,3,13,0.25,8,Rain,182
2012-10-14,61,48,34,41,37,33,100,68,36,30.43,30.31,30.18,10,8,0,10,3,15,0.00,3,Fog,113
2012-10-15,68,49,30,35,31,28,92,57,22,30.22,30.10,29.97,10,10,8,14,5,18,0.00,0,,28
2012-10-16,68,50,32,43,34,28,83,55,27,30.02,29.84,29.63,10,9,5,26,10,36,0.16,4,Rain-Thunderstorm,203
2012-10-17,53,41,28,39,21,10,89,54,18,30.17,29.99,29.77,10,10,7,17,6,22,0.00,1,,273
2012-10-18,58,41,23,24,18,10,81,49,17,30.33,30.24,30.17,10,10,8,16,5,21,0.00,0,,66
2012-10-19,66,45,24,26,22,19,81,49,16,30.26,30.09,29.96,10,10,10,16,3,23,0.00,0,,294
2012-10-20,71,50,29,26,22,17,72,43,13,29.96,29.79,29.63,10,10,9,25,7,33,0.00,1,,213
2012-10-21,68,55,41,28,22,18,53,35,16,29.78,29.71,29.62,10,10,10,23,7,33,0.00,1,,222
2012-10-22,66,54,42,33,31,29,62,45,28,29.78,29.68,29.60,10,10,7,29,11,39,0.00,2,,204
2012-10-23,62,52,41,31,28,23,58,41,23,29.71,29.64,29.57,10,10,6,29,13,39,0.00,4,,212
2012-10-24,42,34,26,31,28,25,92,73,53,30.09,29.91,29.72,10,4,0,10,3,14,0.17,7,Fog-Snow,289
2012-10-25,35,27,18,28,24,15,92,81,69,30.41,30.19,30.08,10,6,0,22,4,29,0.11,7,Fog-Snow,216
2012-10-26,37,25,12,23,18,9,92,72,52,30.57,30.43,30.26,10,10,10,7,2,,T,3,,53
2012-10-27,49,39,28,24,21,17,78,54,29,30.30,30.20,30.09,10,10,10,15,3,18,0.00,5,,254
2012-10-28,59,44,29,32,28,24,82,57,32,30.22,30.14,30.03,10,10,10,14,3,16,0.00,3,,313
2012-10-29,63,45,27,30,27,24,85,56,27,30.27,30.20,30.11,10,10,10,13,3,16,0.00,0,,53
2012-10-30,64,45,25,29,25,18,85,51,17,30.31,30.21,30.09,10,10,10,13,3,16,0.00,0,,36
2012-10-31,67,47,26,26,23,20,81,50,18,30.28,30.17,30.07,10,10,10,10,2,13,0.00,0,,283